Vorticity
nan nan nan nan nan nan nan nan nan nan nan nan nan nan nan nan nan nan nan nan nan nan nan nan nan nan nan nan nan nan nan nan nan nan nan nan nan nan nan nan nan nan nan nan nan nan nan nan nan nan nan nan nan nan nan nan nan nan nan nan nan nan nan nan nan nan nan nan nan nan nan nan nan nan nan nan nan nan nan nan nan nan nan nan nan nan nan nan nan nan nan nan nan nan nan nan nan nan nan nan nan nan nan
nan 4 5 14 23 27 21 12 8 6 5 6 8 7 7 8 9 11 14 14 11 9 8 13 14 10 7 6 5 5 5 5 6 5 3 1 0 -0 0 3 4 5 5 6 6 6 2 -0 2 4 4 4 5 5 6 5 6 6 7 6 6 7 12 14 8 5 6 6 5 5 5 5 5 5 5 5 5 5 7 8 7 6 5 5 5 5 5 5 5 5 6 7 7 7 6 5 5 5 5 5 5 5 nan
nan 3 3 8 14 17 15 10 9 8 7 6 7 6 5 6 7 8 11 14 14 14 15 17 17 12 7 5 5 5 5 6 5 4 2 1 1 2 3 5 6 7 8 9 8 6 1 0 1 3 3 3 4 6 6 5 5 6 7 6 6 9 13 11 7 6 6 5 5 5 5 6 6 6 5 5 5 6 7 7 6 5 4 4 5 5 5 5 5 5 5 6 7 7 6 6 6 5 5 5 5 5 nan
nan 4 3 3 4 7 9 10 11 12 11 7 5 4 4 5 6 6 7 11 14 14 14 16 16 12 7 5 5 6 5 5 4 3 2 2 3 4 6 7 8 9 10 10 9 3 -2 -0 1 2 3 3 4 5 6 6 6 6 6 6 7 10 13 9 7 6 6 5 5 6 6 6 6 6 6 5 5 6 7 6 5 4 4 4 4 5 5 5 5 5 5 5 5 6 6 6 5 5 5 5 4 5 nan
nan 5 3 2 1 3 5 7 9 12 12 10 7 4 4 5 5 5 5 7 10 10 10 13 13 10 7 5 6 6 6 4 3 2 2 3 4 6 9 9 10 10 10 10 7 1 2 3 1 1 3 3 4 5 5 6 6 6 5 7 9 12 13 7 6 6 6 6 6 6 6 6 6 6 6 5 5 6 7 6 4 4 4 4 4 5 5 5 6 6 5 5 4 4 5 5 5 5 5 4 4 4 nan
nan 5 4 2 1 2 3 5 7 9 10 9 6 3 3 5 5 5 4 5 6 6 7 9 10 8 6 6 7 7 6 3 2 2 3 4 6 8 10 10 10 10 10 8 6 2 2 2 3 4 4 4 5 5 5 6 6 6 6 7 11 14 10 6 5 6 6 6 6 6 6 6 7 6 5 5 5 7 7 6 4 4 4 4 5 5 5 5 6 6 6 5 5 4 4 4 4 4 5 4 4 4 nan
nan 5 5 3 2 1 2 4 6 7 7 7 4 3 4 5 6 7 5 3 3 3 6 8 8 5 4 5 7 8 6 2 2 2 4 6 7 9 11 11 11 10 9 7 4 2 1 3 5 5 4 5 5 5 6 6 6 6 6 8 12 12 8 6 5 5 5 5 5 5 6 7 6 6 5 5 6 7 7 6 5 4 4 4 5 5 5 5 6 6 6 5 5 5 5 5 5 5 5 4 4 4 nan
nan 6 5 5 4 2 4 5 7 7 6 4 3 3 4 5 6 8 6 4 4 4 5 5 5 4 3 4 6 6 4 2 2 3 5 7 8 10 11 11 10 9 7 6 4 3 1 2 4 4 4 5 6 6 6 6 6 6 6 8 11 10 8 6 5 5 5 5 5 5 6 6 7 6 5 5 6 7 8 7 6 5 4 4 4 5 5 5 5 5 5 5 5 5 5 5 5 5 5 5 5 5 nan
nan 5 6 6 5 4 5 5 7 8 8 5 4 4 4 4 6 7 7 6 5 5 4 4 5 4 3 3 4 5 3 1 2 4 6 7 9 10 12 12 10 8 6 5 4 3 -0 -1 3 4 4 6 7 6 5 5 6 6 6 8 11 12 9 6 5 5 4 4 5 5 5 6 6 6 5 5 5 6 8 8 6 5 5 4 4 4 5 5 5 5 5 5 5 5 5 5 5 5 5 5 5 5 nan
nan 5 6 6 6 6 5 5 7 9 10 8 5 4 4 4 5 5 6 6 5 5 5 5 6 5 3 3 3 3 2 1 3 4 6 8 9 11 12 12 10 8 6 5 5 4 -1 -2 3 4 5 7 7 7 5 5 6 7 7 10 12 12 7 5 5 5 4 4 4 4 5 5 6 6 5 5 5 6 7 7 6 6 5 5 4 4 4 4 4 5 5 5 5 4 4 4 4 4 4 5 5 5 nan
nan 5 6 6 5 5 4 5 6 7 9 11 9 6 5 4 4 4 4 5 4 4 5 6 7 7 5 4 3 3 2 2 3 4 6 8 10 11 13 12 10 8 6 6 5 3 -2 -2 3 4 6 7 7 6 5 6 7 7 8 12 12 9 6 5 5 5 4 4 4 4 4 5 5 5 5 5 5 5 5 6 6 5 5 5 5 5 4 4 4 4 4 4 4 4 4 4 4 4 4 5 5 5 nan
nan 7 7 6 5 5 4 5 5 6 8 11 10 8 7 5 3 3 3 3 3 3 4 6 7 8 7 5 4 3 1 2 3 5 6 9 10 12 13 12 10 8 7 6 4 0 -5 -2 3 5 6 7 7 6 6 7 7 6 9 13 11 8 6 5 5 5 4 4 4 4 4 4 5 5 5 5 5 5 5 5 5 5 5 5 5 5 5 4 4 4 4 4 4 4 4 5 5 5 5 5 5 5 nan
nan 9 8 7 7 7 4 4 5 6 7 9 10 10 9 7 4 3 2 2 3 3 4 5 6 8 9 8 5 3 1 1 3 5 7 9 11 13 13 12 11 9 8 5 0 -5 -6 1 5 5 6 6 6 7 7 7 7 7 10 13 9 6 5 5 5 5 4 4 4 4 4 4 4 5 5 5 5 5 5 5 5 5 5 5 5 5 5 5 4 4 4 4 4 4 5 5 5 6 6 6 6 6 nan
nan 9 9 9 10 10 6 5 6 7 8 7 8 10 11 8 6 4 2 2 3 4 5 5 6 7 9 9 8 5 2 2 3 5 7 9 11 13 14 13 12 9 6 -1 -5 -4 2 6 6 5 5 6 7 8 7 6 6 8 11 11 7 6 5 5 5 5 5 4 4 4 4 4 4 4 5 5 5 5 5 5 5 5 5 5 5 5 5 5 5 5 5 5 5 5 5 6 6 6 6 6 6 6 nan
nan 8 10 10 10 11 9 7 7 7 7 6 6 9 10 9 8 6 4 4 4 5 6 6 6 6 8 10 9 7 3 2 3 5 7 9 11 13 14 14 11 8 -0 -7 -2 4 8 7 6 5 6 6 7 7 7 6 7 10 11 9 6 5 5 5 5 5 5 5 5 5 4 4 4 4 4 5 5 5 5 5 5 5 5 5 5 5 5 5 5 5 5 5 5 5 6 6 6 6 6 6 6 6 nan
nan 7 9 8 9 11 12 10 9 7 6 5 5 6 9 10 10 9 7 6 5 6 7 7 6 6 7 10 11 8 1 0 2 4 6 9 11 13 13 12 8 3 -4 -1 5 8 8 6 6 6 6 6 6 7 7 7 8 11 11 7 6 5 5 5 5 5 5 5 5 5 5 4 4 4 4 4 4 4 4 4 5 5 5 5 5 5 5 5 5 5 5 6 6 6 6 6 6 6 5 5 6 6 nan
nan 8 8 7 7 8 11 12 10 7 5 5 5 6 7 11 12 11 10 8 7 7 7 7 6 7 7 8 8 4 -3 0 2 2 4 7 9 11 10 7 2 -1 -1 5 7 8 7 6 6 6 6 6 6 6 6 8 9 11 10 6 5 4 4 5 5 5 5 5 6 5 5 5 5 4 4 4 4 4 4 4 4 5 5 5 5 5 5 5 5 5 5 6 6 6 6 6 6 6 5 5 6 6 nan
nan 8 7 6 6 6 9 11 10 8 7 6 7 7 7 10 12 12 12 11 9 8 7 7 7 7 7 4 1 -2 0 3 3 2 2 4 5 6 5 1 -1 -0 4 7 7 8 7 7 7 7 6 6 5 6 6 7 10 11 9 6 5 4 4 4 4 5 5 5 5 6 5 5 5 4 4 4 4 4 4 4 4 4 4 4 5 4 4 5 5 5 5 5 6 6 6 6 6 6 6 6 6 6 nan
nan 8 7 6 6 5 7 9 10 11 9 8 9 9 9 9 10 10 12 12 11 9 8 7 7 6 6 0 -3 -1 5 5 5 4 3 1 0 1 0 -1 1 4 7 7 7 8 8 7 7 7 6 6 5 6 7 8 10 10 8 6 5 4 4 4 4 4 5 5 5 5 5 5 5 4 4 4 4 4 4 4 4 4 4 4 4 4 4 4 4 4 5 5 5 5 6 6 6 6 6 6 6 5 nan
nan 8 7 6 6 5 5 7 10 12 11 11 10 11 10 8 7 8 10 11 10 9 8 6 3 1 0 -2 -0 3 6 6 6 6 6 3 1 0 1 3 5 6 6 7 7 7 7 7 7 6 6 6 6 6 7 8 10 10 8 6 5 4 3 3 3 4 4 5 5 5 5 5 5 4 4 4 4 4 4 4 4 4 4 4 4 4 4 4 4 4 4 4 4 5 5 5 6 6 6 6 6 5 nan
nan 9 8 7 6 4 2 4 8 12 13 12 7 8 11 10 7 7 7 7 8 9 6 1 -3 -2 -1 2 4 6 6 6 6 7 7 6 5 5 5 6 7 6 6 7 7 7 7 7 7 7 6 6 6 7 7 7 8 9 8 6 5 4 3 3 3 3 4 4 5 5 5 5 5 4 4 5 5 5 5 5 4 4 4 4 4 4 4 3 3 3 4 4 4 4 4 5 5 5 5 6 6 5 nan
nan 8 8 8 7 4 2 3 6 10 16 13 4 4 10 11 9 7 3 3 8 9 3 -2 -1 2 4 5 5 5 5 6 6 7 6 6 7 7 7 7 7 6 6 7 7 7 7 7 8 8 7 7 7 7 9 8 7 8 8 6 5 4 3 3 3 3 3 4 4 5 5 5 5 5 4 4 4 5 5 5 5 4 4 4 4 4 4 3 3 3 3 4 4 4 4 4 4 5 5 5 5 6 nan
nan 8 7 7 6 5 3 3 4 8 15 13 5 4 8 10 10 9 5 5 9 9 5 2 4 6 7 6 5 4 6 7 7 6 5 5 6 6 7 7 7 6 6 7 7 7 7 7 8 8 8 7 7 7 9 10 8 7 7 7 5 4 3 3 3 3 3 3 4 4 5 5 5 5 4 4 4 4 4 4 4 4 4 4 4 4 4 4 4 3 3 4 3 4 3 3 4 4 4 5 5 5 nan
nan 8 7 7 6 5 4 3 4 5 10 12 8 7 6 7 9 10 9 9 9 8 6 4 4 6 9 8 7 6 7 9 9 9 7 6 6 7 7 7 7 7 6 6 6 6 6 7 7 8 7 7 8 8 9 10 8 6 7 7 6 4 3 3 3 3 3 3 3 4 5 6 5 5 5 4 4 4 4 4 4 4 4 4 4 5 5 4 4 4 4 4 4 4 3 3 3 3 4 4 5 5 nan
nan 7 7 7 7 6 5 4 4 5 8 10 10 10 7 5 5 8 10 9 8 7 5 4 5 7 9 8 7 6 7 8 9 10 10 9 8 8 8 8 7 7 7 6 6 6 6 6 7 7 7 7 8 9 11 10 8 6 6 6 6 5 4 4 4 4 3 3 3 3 4 5 6 6 5 4 4 4 4 4 4 4 4 4 4 4 5 5 4 4 4 4 4 4 4 4 3 3 4 4 4 5 nan
nan 8 7 7 7 7 6 5 4 5 7 9 10 11 8 5 3 5 8 9 8 7 6 6 7 8 7 7 5 5 6 7 7 8 9 10 9 8 8 8 7 7 7 6 6 6 7 7 7 7 7 7 8 9 12 12 9 7 6 6 6 6 5 4 4 4 3 3 3 3 4 5 6 6 5 5 4 4 4 4 4 4 4 4 4 4 4 5 5 5 4 4 4 4 4 4 4 4 4 4 4 4 nan
nan 8 7 7 7 7 7 6 5 5 7 8 10 11 9 7 4 4 6 8 9 8 8 7 6 6 6 5 4 4 5 6 6 6 8 8 8 8 8 7 7 7 7 6 6 7 7 7 7 7 7 7 8 8 13 14 11 8 6 5 6 7 7 6 5 4 4 4 3 3 4 5 6 7 6 5 4 4 4 4 4 4 4 4 4 4 4 5 5 4 5 5 5 5 4 4 4 4 4 4 4 4 nan
nan 8 8 7 7 7 7 6 5 5 6 7 9 10 10 8 6 5 5 7 8 8 7 5 4 4 5 5 4 4 4 5 6 6 7 7 8 8 7 7 7 7 6 6 7 7 7 7 7 7 7 7 8 8 11 15 13 9 7 5 6 7 8 8 6 5 4 3 3 3 4 5 6 7 7 6 5 5 5 5 5 4 4 4 4 4 4 4 4 4 4 5 5 5 5 5 5 4 4 4 4 3 nan
nan 7 8 8 7 7 7 7 6 5 6 6 7 8 9 9 8 6 5 6 7 7 7 6 6 6 6 6 5 5 5 6 6 6 7 7 8 8 8 7 6 6 6 7 7 7 7 7 7 7 8 8 8 8 9 13 14 11 8 6 6 7 9 9 8 7 5 4 3 3 3 4 5 6 7 7 6 6 6 5 5 5 5 5 5 4 4 4 4 4 4 5 5 5 5 5 5 5 4 4 4 3 nan
nan 6 8 9 8 8 7 7 6 6 6 6 6 7 8 9 9 8 7 6 6 7 8 7 7 7 7 6 6 7 7 6 6 5 6 7 8 8 7 7 7 6 7 7 7 7 7 7 7 7 8 8 8 8 9 11 14 13 9 7 6 7 9 10 9 8 6 5 4 3 3 3 4 5 6 7 7 7 7 6 6 6 6 6 6 5 5 5 5 5 5 4 5 5 6 5 5 5 5 5 4 4 nan
nan 5 7 8 8 8 8 8 6 6 6 7 6 7 7 9 10 9 8 6 6 6 6 6 6 6 6 6 6 7 7 7 6 6 6 6 7 7 7 7 7 7 7 8 8 8 8 7 7 7 7 8 8 8 8 10 13 15 12 8 7 8 9 10 10 9 7 5 4 3 2 3 3 4 5 6 7 7 8 8 7 7 8 7 7 6 6 6 6 6 6 5 5 5 5 6 5 5 6 6 5 4 nan
nan 6 7 7 7 7 8 8 7 6 7 7 7 7 8 9 9 9 9 8 8 7 6 6 6 6 6 5 5 6 8 8 8 7 6 6 7 7 8 7 7 8 8 7 7 7 8 7 7 7 7 6 7 8 8 8 11 14 15 11 9 9 10 11 11 10 9 7 5 3 2 2 3 3 4 4 5 6 7 7 8 8 8 8 8 8 7 7 7 7 6 6 6 6 6 6 5 5 6 6 6 5 nan
nan 6 7 8 7 6 8 8 7 6 7 8 8 8 8 9 9 10 10 9 10 10 10 10 10 9 8 6 6 6 8 9 9 8 7 6 7 7 8 8 8 8 8 7 7 7 7 6 6 7 7 7 7 7 7 7 8 11 15 15 12 10 10 10 10 10 10 9 7 5 3 2 2 2 3 3 4 4 6 6 7 7 7 8 8 8 8 8 8 8 7 7 7 6 6 6 6 5 5 6 6 6 nan
nan 7 8 8 7 6 7 8 7 7 7 8 8 9 9 8 9 10 10 8 8 9 11 12 11 11 10 8 7 6 7 8 9 9 8 7 7 7 8 7 8 8 7 6 7 7 7 6 7 7 7 7 6 6 7 7 8 9 12 13 12 11 10 9 10 10 10 10 9 8 6 4 3 2 2 2 3 3 4 4 5 6 6 6 7 8 8 9 9 8 8 8 8 7 7 6 6 6 6 7 7 6 nan
nan 7 8 8 7 6 6 7 8 8 7 7 9 11 10 7 7 7 7 6 5 6 8 9 8 8 9 8 7 6 6 8 8 9 8 6 7 7 7 7 8 8 7 7 7 8 7 6 7 7 6 7 7 7 7 7 7 8 9 11 12 12 11 10 10 9 9 10 10 10 8 6 5 3 3 2 2 2 3 3 4 4 4 5 6 6 7 7 8 8 9 9 9 8 8 7 7 7 7 8 8 8 nan
nan 7 8 8 7 6 6 7 8 9 8 7 8 10 9 5 4 4 5 5 5 5 5 7 8 7 7 7 5 4 5 7 7 6 6 7 7 6 7 7 8 7 7 8 9 8 7 7 7 8 7 8 8 8 7 8 7 7 8 11 13 14 14 14 13 11 9 9 9 10 9 8 7 5 4 3 3 3 3 3 3 3 3 3 4 4 5 6 6 7 8 8 9 9 9 9 9 9 9 9 9 9 nan
nan 8 8 7 7 7 6 7 8 10 8 7 7 8 6 5 5 5 6 7 7 5 5 6 8 8 8 7 6 5 6 7 6 5 5 7 7 6 6 8 8 7 7 9 9 8 7 8 8 9 8 9 8 8 8 8 8 7 7 9 10 12 13 14 14 13 12 9 9 9 10 9 8 7 5 5 4 3 3 3 3 3 2 2 2 2 3 3 4 5 6 6 7 8 9 9 10 10 10 10 10 10 nan
nan 8 7 7 7 7 6 6 9 9 8 7 6 7 6 6 6 7 7 7 6 5 4 5 6 6 7 8 8 7 7 8 8 6 6 6 6 6 7 8 8 8 8 9 9 9 8 9 9 9 9 8 8 8 9 9 8 7 7 7 8 9 9 10 11 12 15 13 11 10 10 10 10 9 7 6 5 5 4 4 3 3 3 2 2 2 2 2 3 3 3 4 5 6 6 7 8 9 10 10 10 10 nan
nan 7 7 7 7 7 6 8 9 9 7 7 6 7 7 7 7 7 8 8 6 5 5 5 4 4 5 8 8 8 8 9 9 8 7 7 7 7 8 8 9 8 9 9 9 9 9 9 9 8 9 9 9 9 9 8 8 7 7 7 7 7 7 7 8 9 12 15 15 14 11 10 10 9 8 7 7 6 5 5 5 5 4 4 3 2 2 2 2 2 2 3 3 4 5 6 6 7 7 8 8 9 nan
nan 7 7 6 6 6 8 9 9 8 7 7 7 7 8 8 7 6 7 7 6 6 7 8 5 3 4 6 6 6 7 9 9 9 8 8 7 7 7 8 8 8 9 8 8 8 8 8 8 8 9 10 10 10 8 8 7 8 7 7 7 6 6 6 6 7 8 11 14 16 14 11 10 9 9 8 8 7 7 7 7 6 6 5 5 4 4 3 3 2 2 2 2 3 4 5 5 6 6 7 7 8 nan
nan 7 7 6 6 7 10 10 8 6 7 8 7 8 9 8 7 6 6 6 5 5 9 11 8 7 5 5 6 5 5 7 9 9 8 7 7 7 7 7 7 8 8 8 7 7 8 8 8 8 9 10 10 9 8 8 8 8 8 7 7 6 5 5 6 6 6 8 10 13 16 13 11 10 10 9 9 9 8 9 8 8 7 7 6 6 5 4 4 3 3 2 2 3 3 4 5 5 6 7 7 8 nan
nan 7 7 7 7 8 10 9 7 7 7 8 8 8 8 8 8 8 7 5 4 4 7 10 12 11 9 6 7 6 5 5 7 8 8 7 7 7 7 7 7 8 8 8 7 7 7 8 8 8 9 9 8 8 8 10 10 9 8 8 8 8 7 6 7 7 6 7 7 9 15 16 14 11 10 10 10 10 10 10 9 8 8 7 7 6 6 5 5 4 4 3 3 3 3 3 4 5 6 6 7 8 nan
nan 7 7 7 8 9 10 9 8 7 7 8 8 8 8 8 8 10 9 7 5 4 5 8 11 12 11 8 8 7 6 4 5 7 9 7 7 7 7 7 8 8 8 8 7 7 8 8 8 8 8 7 7 7 8 9 10 10 10 11 11 11 10 8 7 7 6 6 6 7 10 16 17 15 12 12 11 11 10 10 9 9 8 8 8 7 7 6 6 6 5 5 4 4 3 3 3 4 5 6 6 7 nan
nan 8 7 8 9 10 10 9 7 7 7 8 9 9 7 7 8 9 10 9 7 4 4 6 9 12 12 10 9 8 7 6 7 7 8 8 8 7 7 8 8 8 8 8 8 8 8 8 8 9 8 7 6 6 8 8 8 9 11 11 12 13 11 9 7 6 6 6 6 6 6 10 15 18 17 16 15 14 13 11 10 10 9 9 9 9 8 8 7 7 6 6 5 5 4 4 4 4 4 5 6 6 nan
nan 8 8 9 10 10 10 8 6 6 7 8 9 8 7 6 7 8 8 9 9 7 5 5 7 10 12 12 11 10 9 10 10 9 8 8 8 8 8 8 8 8 8 8 9 9 8 8 8 9 8 7 7 7 8 7 8 9 10 10 10 12 11 9 8 7 7 7 7 7 7 6 8 13 17 18 19 19 17 14 12 10 10 10 10 10 9 9 9 8 8 7 6 6 5 5 4 4 4 5 5 6 nan
nan 8 8 9 10 10 9 7 6 6 7 8 8 8 6 6 6 7 7 7 8 8 6 6 6 7 9 12 12 12 11 11 11 9 8 8 8 8 8 9 9 8 7 8 9 9 8 8 8 8 8 7 7 7 8 8 9 9 8 9 9 11 11 10 9 8 8 8 8 8 8 7 6 7 10 13 15 16 17 16 13 11 10 10 10 10 10 10 9 9 9 8 7 7 6 6 5 5 4 4 5 5 nan
nan 8 8 9 9 9 9 8 6 6 7 8 8 7 5 6 6 7 6 6 6 7 7 7 6 5 6 7 8 10 11 10 9 8 7 7 8 8 9 10 10 10 9 8 8 8 7 8 8 8 8 8 8 8 8 10 9 8 7 9 9 10 11 11 11 10 9 9 9 8 9 9 8 7 7 9 9 11 13 16 16 14 12 11 10 10 10 10 10 10 10 9 8 8 8 7 7 6 5 5 5 5 nan
nan 7 9 10 9 8 9 8 6 6 7 7 6 7 6 6 7 7 7 7 7 7 8 8 7 6 4 2 3 6 9 9 9 8 7 5 6 8 9 10 11 11 10 9 8 8 8 8 8 8 9 9 9 9 9 10 9 8 8 9 9 9 10 10 11 11 11 9 9 8 8 8 9 8 7 8 8 9 10 13 16 18 16 13 12 12 11 12 11 11 10 10 10 9 9 9 8 7 7 6 5 5 nan
nan 7 8 10 9 8 8 8 7 6 6 6 7 8 10 10 9 8 8 8 8 8 9 9 9 9 6 2 2 4 8 8 8 8 7 7 6 7 9 10 10 10 11 11 11 11 10 10 9 9 8 9 9 10 10 10 10 9 9 9 9 9 9 9 11 11 11 10 9 9 7 7 8 8 8 8 8 8 8 9 13 16 18 18 17 16 16 14 13 12 12 11 10 10 10 10 9 9 8 7 6 5 nan
nan 7 8 8 8 8 8 9 7 6 7 7 9 10 12 12 11 10 8 7 7 6 6 7 9 11 11 7 5 5 7 7 7 5 5 8 9 9 8 9 9 11 12 12 12 12 12 10 10 10 9 9 9 10 10 11 10 10 10 9 8 8 8 10 11 11 11 11 10 9 8 7 7 8 8 8 8 8 8 8 9 11 14 18 21 22 22 21 17 14 12 11 11 11 11 11 11 10 9 8 7 6 nan
nan 8 8 7 7 8 9 9 7 6 7 8 8 10 12 12 10 8 8 7 6 5 3 3 5 9 13 12 9 8 8 8 7 5 6 8 10 11 9 6 7 8 11 11 11 11 11 10 10 10 10 10 10 10 11 11 11 10 10 9 8 8 8 10 11 11 11 11 11 11 10 8 7 7 8 7 6 6 7 7 7 8 10 13 15 16 17 18 18 15 10 10 10 10 11 11 11 11 10 9 8 7 nan
nan 8 7 6 6 7 10 10 8 8 7 5 5 7 9 10 8 8 8 9 7 6 3 3 4 6 8 11 10 9 8 9 9 9 9 7 7 10 8 7 7 7 8 10 11 9 7 9 11 12 10 9 9 9 10 11 11 11 10 9 9 8 9 10 10 10 9 9 10 12 12 11 9 8 7 6 5 5 5 5 6 7 8 9 9 9 10 9 8 7 7 8 8 9 10 11 11 11 11 10 9 8 nan
nan 8 7 6 6 7 9 10 9 9 7 5 5 5 7 8 8 7 8 8 8 7 6 6 5 5 5 7 8 9 9 10 9 10 8 6 5 6 8 10 10 9 7 9 8 6 4 7 11 13 9 7 8 9 10 10 10 10 10 9 9 9 10 10 10 10 8 8 9 10 11 12 11 10 9 7 7 6 6 5 5 5 7 8 9 9 10 9 7 5 8 9 10 10 10 11 11 11 11 10 9 8 nan
nan 9 6 4 5 6 8 10 8 8 8 7 6 6 8 8 7 6 7 8 8 8 8 6 5 5 5 5 6 7 8 8 9 10 9 8 7 6 7 9 11 11 8 7 7 7 6 7 9 9 6 6 9 11 10 10 9 9 8 9 9 9 10 10 10 10 9 9 9 10 9 10 11 12 11 10 10 9 9 8 6 5 5 6 7 7 7 7 9 12 16 16 14 12 11 10 10 10 10 10 9 8 nan
nan 9 5 4 5 6 9 10 8 7 7 8 9 8 9 8 6 6 8 8 8 8 7 6 6 4 4 5 6 7 7 7 8 9 10 10 10 8 6 5 6 6 8 10 10 9 5 6 9 10 6 6 9 10 9 9 8 8 8 9 9 9 8 9 9 10 10 10 10 10 10 10 10 11 10 10 10 10 9 9 8 7 6 6 6 6 6 7 12 17 18 19 18 15 12 11 10 10 10 9 9 8 nan
nan 7 6 7 6 5 7 9 8 8 7 7 8 9 9 9 9 10 10 10 10 7 4 5 5 4 4 8 9 7 7 8 9 9 8 8 9 11 11 7 4 3 7 8 10 9 7 8 10 11 8 8 7 7 7 7 6 7 8 9 9 8 8 8 9 9 8 9 9 10 10 10 9 10 10 11 10 9 9 9 9 10 9 8 8 9 10 12 13 14 13 15 17 18 14 12 10 9 9 9 8 8 nan
nan 8 8 8 8 5 5 7 8 7 6 7 8 9 9 10 11 10 9 9 8 6 5 6 6 5 6 10 10 9 7 7 7 8 7 8 8 11 13 11 9 8 9 10 10 11 10 11 10 9 10 9 9 8 7 5 8 9 11 10 10 9 9 8 8 7 7 7 8 9 10 10 10 10 11 10 10 10 11 10 10 10 9 9 9 9 10 10 9 7 9 9 11 13 11 10 9 8 8 8 8 8 nan
nan 10 10 8 8 6 4 5 7 7 7 7 7 8 9 9 9 9 9 9 8 8 7 5 6 5 6 8 10 10 8 6 4 4 6 8 8 9 10 11 11 13 14 14 13 10 9 7 8 7 8 7 9 9 8 7 10 11 11 11 11 10 9 7 7 6 6 6 6 8 9 10 10 10 10 10 10 11 12 11 10 10 9 10 9 9 8 8 7 5 3 2 1 2 7 8 8 7 7 7 8 8 nan
nan 10 9 9 9 7 4 6 7 7 8 8 6 7 8 8 8 8 10 10 10 9 8 6 6 7 7 6 7 8 9 7 5 5 7 7 7 7 8 9 9 11 13 13 12 10 8 5 7 6 7 6 7 7 8 9 9 8 8 9 9 9 8 8 8 7 7 7 7 7 7 9 10 9 9 9 10 10 11 12 11 10 10 10 10 9 9 10 9 8 5 3 1 1 6 8 7 7 7 7 7 8 nan
nan 8 9 10 10 7 5 6 7 7 8 8 6 7 7 7 7 8 10 12 13 11 8 7 7 8 9 8 7 7 8 8 7 7 8 7 6 7 8 8 8 9 9 8 10 12 13 11 10 7 5 6 5 6 6 8 8 8 8 7 7 8 10 11 10 9 9 9 9 8 7 7 8 9 8 7 8 8 10 12 11 10 10 9 8 9 9 11 12 13 13 13 11 9 9 9 8 8 8 8 8 9 nan
nan nan nan nan nan nan nan nan nan nan nan nan nan nan nan nan nan nan nan nan nan nan nan nan nan nan nan nan nan nan nan nan nan nan nan nan nan nan nan nan nan nan nan nan nan nan nan nan nan nan nan nan nan nan nan nan nan nan nan nan nan nan nan nan nan nan nan nan nan nan nan nan nan nan nan nan nan nan nan nan nan nan nan nan nan nan nan nan nan nan nan nan nan nan nan nan nan nan nan nan nan nan nan
CAPE
101 180 218 334 689 689 711 605 478 478 400 396 236 236 360 518 518 595 705 672 672 458 381 421 397 397 328 228 175 175 139 130 128 128 131 132 132 113 80 43 43 22 18 28 86 86 31 nan nan nan nan nan nan nan nan 0 0 0 nan nan nan nan nan 1 1 1 3 5 7 7 1 1 0 0 nan nan nan nan 5 17 17 13 6 3 1 1 nan nan nan nan nan 1 1 1 0 0 0 0 nan nan nan nan 0
133 196 156 255 564 564 656 570 441 441 400 343 256 256 355 510 510 586 659 658 658 600 555 521 398 398 302 226 179 179 152 133 132 132 132 120 120 91 47 20 20 14 23 45 76 76 5 nan nan nan nan nan nan nan nan nan nan nan nan nan nan nan nan nan nan nan 2 4 5 5 1 0 nan nan nan nan nan nan 8 13 13 8 3 1 0 0 nan nan nan nan nan 3 1 1 0 0 0 0 0 nan nan 0 0
150 191 146 196 396 396 525 466 423 423 352 317 268 268 353 475 475 549 557 579 579 610 591 516 375 375 261 223 186 186 164 142 140 140 120 88 88 56 24 10 10 15 34 67 53 53 3 nan nan nan nan nan nan nan nan nan nan nan nan nan nan nan nan nan nan nan 0 1 1 1 0 nan nan nan nan nan nan nan 8 10 10 5 1 nan nan nan nan nan nan nan nan 2 0 0 0 0 0 0 nan nan nan nan 0
147 211 166 167 305 305 394 388 325 325 258 240 283 283 321 385 385 486 461 401 401 472 490 419 283 283 241 223 220 220 187 152 124 124 93 56 56 24 13 7 7 20 47 70 39 39 nan nan nan nan nan nan nan nan nan nan nan nan nan nan nan nan nan nan nan nan 0 0 0 0 nan nan nan nan nan nan nan nan 7 8 8 4 0 nan nan nan nan nan nan nan nan 0 nan nan nan 0 0 nan nan nan nan nan nan
164 208 183 189 246 246 337 360 272 272 212 152 175 175 195 282 282 402 395 356 356 364 417 363 226 226 223 225 204 204 166 144 108 108 62 31 31 14 9 14 14 25 49 43 5 5 nan 0 nan nan nan nan nan nan nan nan nan nan nan nan nan nan 1 nan nan nan nan nan nan nan nan nan nan nan nan nan nan nan 6 5 5 2 nan nan nan nan nan nan nan nan nan nan nan nan nan nan nan nan nan nan nan nan nan
157 208 208 161 213 213 327 342 293 293 178 86 87 87 110 178 178 299 362 306 306 311 346 323 181 181 190 209 192 192 161 127 84 84 35 13 13 8 7 14 14 27 37 17 0 0 nan nan nan nan nan nan nan nan nan nan nan nan nan nan nan nan 2 nan nan nan nan nan nan nan nan nan nan nan nan nan nan nan 5 4 4 1 nan nan nan nan nan nan nan nan nan nan nan nan nan nan nan nan nan nan nan nan nan
132 209 209 156 155 155 262 385 346 346 229 103 80 80 84 111 111 204 310 240 240 244 295 303 176 176 165 181 161 161 147 110 58 58 16 5 5 4 5 14 14 20 18 2 nan nan nan nan nan nan nan nan nan nan nan nan nan nan nan nan nan nan 2 nan nan nan nan nan nan nan nan nan nan nan nan nan nan nan 2 3 3 1 nan nan nan nan nan nan nan nan nan nan nan nan nan nan nan nan nan nan nan nan nan
135 233 235 172 132 132 171 347 400 400 325 196 134 134 96 88 88 157 260 203 203 231 278 274 176 176 156 157 153 153 132 101 37 37 6 1 1 2 4 16 16 15 7 0 nan nan nan nan nan nan nan nan nan nan nan nan nan nan nan nan nan 2 2 0 0 0 nan nan nan nan nan nan nan nan nan nan nan nan 2 2 2 0 nan nan nan nan nan nan nan nan nan nan nan nan nan nan nan nan nan nan nan nan nan
137 259 285 192 145 145 163 277 455 455 412 312 230 230 168 128 128 155 212 196 196 195 238 227 154 154 145 147 145 145 123 85 18 18 0 nan nan 2 3 10 10 9 2 nan nan nan nan nan nan nan nan nan nan nan nan nan nan nan nan nan nan nan 0 nan nan nan nan nan nan nan nan nan nan nan nan nan nan nan 2 1 1 nan nan nan nan nan nan nan nan nan nan nan nan nan nan nan nan nan nan nan nan nan nan
160 285 337 264 204 204 177 269 377 377 443 372 302 302 252 197 197 179 187 178 178 145 130 141 132 132 133 144 146 146 116 58 6 6 nan nan nan 2 3 6 6 5 2 nan nan nan nan nan nan nan nan nan nan nan nan nan nan nan nan nan nan nan nan nan 0 0 nan 0 nan nan nan nan nan nan nan nan nan nan nan nan nan nan nan nan nan nan nan nan nan nan nan nan nan nan nan nan nan nan nan nan nan nan nan
209 337 363 345 273 273 238 285 347 347 371 337 303 303 293 253 253 248 196 147 147 120 91 90 97 97 112 137 148 148 106 47 1 1 nan nan nan 2 2 4 4 5 2 nan nan nan nan nan nan nan nan nan nan nan nan nan nan nan nan nan nan nan nan nan nan nan nan 0 nan nan nan nan nan nan nan nan nan nan nan nan nan nan nan nan nan nan nan nan nan nan nan nan nan nan nan nan nan nan nan nan nan nan nan
265 337 391 431 323 323 306 327 353 353 321 287 280 280 262 256 256 275 228 146 146 94 65 60 70 70 83 125 143 143 101 31 nan nan nan nan nan 1 1 2 2 5 2 0 nan nan nan nan nan nan nan nan nan nan nan nan nan nan nan nan nan nan nan nan nan nan nan nan nan nan nan nan nan nan nan nan nan nan nan nan nan nan nan nan nan nan nan nan nan nan nan nan nan nan nan nan nan nan nan nan nan 0 1
303 344 393 368 346 346 327 401 404 404 328 269 230 230 248 252 252 262 274 176 176 111 65 53 45 45 59 104 132 132 94 23 nan nan nan nan nan 1 0 1 1 3 3 0 nan nan nan nan nan nan nan nan nan nan nan nan nan nan nan 5 5 nan nan nan nan nan nan nan 0 0 nan nan nan nan nan nan nan nan nan nan nan nan nan nan nan nan nan nan nan nan nan nan nan nan nan nan nan nan nan nan nan 0 1
256 300 315 253 338 338 349 396 369 369 306 246 231 231 213 217 217 254 260 204 204 122 78 56 35 35 51 88 108 108 77 15 nan nan nan nan nan 1 0 1 1 3 1 nan nan nan nan nan nan nan nan nan nan nan nan nan nan nan nan 1 1 nan nan nan nan nan 0 nan 0 0 0 nan nan nan nan nan nan nan nan nan nan nan nan nan nan nan nan nan nan nan nan nan nan nan nan nan nan nan 0 1 1 1 1
311 254 170 113 247 247 289 335 335 335 250 227 253 253 187 182 182 232 271 224 224 140 94 57 31 31 46 93 98 98 63 13 nan nan nan nan nan 0 0 1 1 0 1 nan nan nan nan nan nan nan nan nan nan nan nan nan nan nan nan nan nan nan nan nan nan nan 0 nan 0 0 1 0 nan nan nan nan nan nan nan nan nan nan nan nan nan nan nan nan nan nan nan nan nan nan nan nan nan nan nan 0 0 nan 1
194 169 73 58 146 146 227 276 225 225 222 219 256 256 188 182 182 210 259 244 244 153 83 52 38 38 41 109 112 112 53 15 nan nan nan nan nan nan 0 0 0 nan nan nan nan nan nan nan nan nan nan nan nan nan nan nan nan nan 3 nan nan nan nan nan nan nan 0 1 1 1 2 1 nan nan nan nan nan nan nan nan nan nan nan nan nan nan nan nan nan nan nan nan nan nan nan nan nan nan nan nan nan 0 0
70 88 40 56 108 108 150 193 190 190 177 214 258 258 254 262 262 271 320 280 280 166 90 47 35 35 49 114 142 142 9 10 nan nan nan nan nan nan nan nan nan nan nan nan nan nan nan nan nan nan nan nan nan nan nan nan nan nan 3 nan nan nan nan nan nan nan 0 0 1 1 2 1 nan nan nan nan nan nan nan nan nan nan nan nan nan nan nan nan nan nan nan nan nan nan nan nan nan nan nan nan nan nan 0
27 32 41 55 70 70 109 161 159 159 168 211 276 276 320 349 349 337 339 272 272 160 82 36 34 34 49 65 28 28 nan nan nan nan nan nan nan nan nan nan nan nan nan nan nan nan nan nan nan nan nan nan nan nan nan nan nan nan 3 nan nan nan nan 0 0 0 0 0 0 0 1 0 nan nan nan nan nan nan nan nan nan nan nan nan nan nan nan nan nan nan nan nan nan nan nan nan nan nan nan nan nan nan nan
14 28 38 52 56 56 58 89 136 136 155 254 318 318 394 392 392 345 305 217 217 126 70 34 30 30 43 6 nan nan nan nan nan nan nan nan nan nan nan nan nan nan nan nan nan nan nan nan nan nan nan nan nan nan nan nan nan nan 0 nan nan 0 1 0 0 0 0 0 0 0 0 nan nan nan nan nan nan nan nan nan nan nan nan nan nan nan nan nan nan nan nan nan nan nan nan nan nan nan nan nan nan nan nan
3 10 35 44 41 41 34 32 50 50 102 228 256 256 375 254 254 133 87 77 77 64 56 50 47 47 nan nan nan nan nan nan nan nan nan nan nan nan nan nan nan nan nan nan nan nan nan nan nan nan nan nan nan nan nan nan nan nan 12 0 0 1 5 5 3 3 1 0 0 0 0 nan nan nan nan nan nan nan nan nan nan nan nan nan nan nan nan nan nan nan nan nan nan nan nan nan nan nan nan nan nan nan 0
nan nan 5 23 29 29 15 nan 0 0 13 140 8 8 19 96 96 68 55 23 23 59 83 17 nan nan nan nan nan nan nan nan nan nan nan nan nan nan nan nan nan nan nan nan nan nan nan nan nan nan nan nan nan nan nan nan nan nan 5 1 1 3 6 6 5 5 4 2 2 2 2 0 nan nan nan nan nan nan nan nan nan nan nan nan nan nan nan nan nan nan nan nan nan nan nan nan nan nan nan nan nan nan 1
nan nan nan nan nan nan nan nan nan nan nan 39 nan nan nan 35 35 28 25 nan nan nan nan nan nan nan nan nan nan nan nan nan nan nan nan nan nan nan nan nan nan nan nan nan nan nan nan nan nan nan nan nan nan nan nan nan nan nan 1 7 7 3 7 11 10 10 7 7 6 6 5 3 1 1 0 0 0 nan nan nan nan nan nan nan nan nan nan nan nan nan nan nan nan nan nan nan nan nan nan 0 0 2 3
nan nan nan nan nan nan nan nan nan nan nan 1 nan nan nan nan nan 5 5 nan nan nan nan nan nan nan nan nan nan nan nan nan nan nan nan nan nan nan nan nan nan nan nan nan nan nan nan nan nan nan nan nan nan nan nan nan nan nan 0 12 12 8 8 14 18 18 15 13 12 12 12 9 5 5 4 2 2 1 1 0 0 nan nan nan 0 0 nan nan nan nan nan nan nan nan nan nan nan nan 1 3 3 5 7
nan nan nan nan nan nan nan nan nan nan nan nan nan nan nan nan nan nan nan nan nan nan nan nan nan nan nan nan nan nan nan nan nan nan nan nan nan nan nan nan nan nan nan nan nan nan nan nan nan nan nan nan nan nan nan nan nan nan nan 12 12 12 12 16 21 21 19 20 19 19 21 18 14 14 9 8 8 8 7 6 6 5 4 4 3 3 3 3 3 3 2 1 1 1 1 1 1 2 4 6 6 9 10
nan nan nan nan nan nan nan nan nan nan nan nan nan nan nan nan nan nan nan nan nan nan nan nan nan nan nan nan nan nan nan nan nan nan nan nan nan nan nan nan nan nan nan nan nan nan nan nan nan nan nan nan nan nan nan nan nan nan nan 13 13 20 16 16 23 23 28 30 29 29 27 27 24 24 20 17 17 17 17 15 15 13 12 10 10 10 10 9 8 8 7 6 6 6 5 6 6 7 8 10 10 13 16
nan nan nan nan nan nan nan nan nan nan nan nan nan nan nan nan nan nan nan nan nan nan nan nan nan nan nan nan nan nan nan nan nan nan nan nan nan nan nan nan nan nan nan nan nan nan nan nan nan nan nan nan nan nan nan nan nan nan nan 5 5 29 29 12 20 20 27 33 34 34 36 34 34 34 32 30 30 27 27 22 22 22 19 18 17 17 16 16 16 16 16 15 15 15 14 15 15 15 16 18 18 19 22
nan nan nan nan nan nan nan nan nan nan nan nan nan nan nan nan nan nan nan nan nan nan nan nan nan nan nan nan nan nan nan nan nan nan nan nan nan nan nan nan nan nan nan nan nan nan nan nan nan nan nan nan nan nan nan nan nan nan nan nan nan 26 50 28 16 16 23 31 34 34 36 38 38 38 37 34 34 34 35 31 31 27 27 26 22 22 21 22 24 24 26 22 23 23 24 23 23 22 24 24 24 25 28
nan nan nan nan nan nan nan nan nan nan nan nan nan nan nan nan nan nan nan nan nan nan nan nan nan nan nan nan nan nan nan nan nan nan nan nan nan nan nan nan nan nan nan nan nan nan nan nan nan nan nan nan nan nan nan nan nan nan nan nan nan 8 51 45 16 16 26 27 28 28 31 38 41 41 39 40 40 39 39 37 37 38 36 35 30 30 28 29 30 30 30 27 29 29 28 30 30 31 30 29 29 32 33
nan nan nan nan nan nan nan nan nan nan nan nan nan nan nan nan nan nan nan nan nan nan nan nan nan nan nan nan nan nan nan nan nan nan nan nan nan nan nan nan nan nan nan nan nan nan nan nan nan nan nan nan nan nan nan nan nan nan nan nan nan nan 28 68 40 40 30 27 28 28 33 37 43 43 46 53 53 48 48 52 52 48 44 44 43 43 38 38 39 39 39 37 35 35 35 36 36 36 38 37 37 36 37
nan nan nan nan nan nan nan nan nan nan nan nan nan nan nan nan nan nan nan nan nan nan nan nan nan nan nan nan nan nan nan nan nan nan nan nan nan nan nan nan nan nan nan nan nan nan nan nan nan nan nan nan nan nan nan nan nan nan nan nan nan nan 9 70 62 62 49 34 29 29 33 32 39 39 51 55 55 62 62 66 66 62 61 60 60 60 54 55 53 53 52 47 40 40 43 39 39 41 46 47 47 48 47
nan nan nan nan nan nan nan nan nan nan nan nan nan nan nan nan nan nan nan nan nan nan nan nan nan nan nan nan nan nan nan nan nan nan nan nan nan nan nan nan nan nan nan nan nan nan nan nan nan nan nan nan nan nan nan nan nan nan nan nan nan nan 0 35 70 70 55 46 29 29 34 33 39 39 50 55 55 67 71 71 71 70 73 77 73 73 74 71 78 78 67 62 58 58 51 50 50 50 53 53 53 54 52
nan nan nan nan nan nan nan nan nan nan nan nan nan nan nan nan nan nan nan nan nan nan nan nan nan nan nan nan nan nan nan nan nan nan nan nan nan nan nan nan nan nan nan nan nan nan nan nan nan nan nan nan nan nan nan nan nan nan nan nan nan nan nan 11 48 48 48 46 38 38 33 35 40 40 48 55 55 63 67 70 70 72 76 84 86 86 92 93 90 90 82 80 67 67 62 62 62 61 58 60 60 59 59
nan nan nan nan nan nan nan nan nan nan nan nan nan nan nan nan nan nan nan nan nan nan nan nan nan nan nan nan nan nan nan nan nan nan nan nan nan nan nan nan nan nan nan nan nan nan nan nan nan nan nan nan nan nan nan nan nan nan nan nan nan nan nan nan 10 10 28 32 31 31 33 36 38 38 45 52 52 61 66 73 73 75 80 86 91 91 99 103 107 107 106 103 89 89 81 73 73 71 68 69 69 65 64
nan nan nan nan nan nan nan nan nan nan nan nan nan nan nan nan nan nan nan nan nan nan nan nan nan nan nan nan nan nan nan nan nan nan nan nan nan nan nan nan nan nan nan nan nan nan nan nan nan nan nan nan nan nan nan nan nan nan nan nan nan nan nan nan nan nan 5 13 20 20 26 30 37 37 43 51 51 58 66 70 70 78 79 85 89 89 97 103 108 108 113 119 115 115 99 87 87 81 77 75 75 72 68
nan nan nan nan nan nan nan nan nan nan nan nan nan nan nan nan nan nan nan nan nan nan nan nan nan nan nan nan nan nan nan nan nan nan nan nan nan nan nan nan nan nan nan nan nan nan nan nan nan nan nan nan nan nan nan nan nan nan nan nan nan nan nan nan nan nan nan 2 12 12 19 24 30 30 38 52 52 61 62 69 69 76 79 82 85 85 90 93 95 95 102 111 124 124 116 106 106 100 87 83 83 78 74
nan nan nan nan nan nan nan nan nan nan nan nan nan nan nan nan nan nan nan nan nan nan nan nan nan nan nan nan nan nan nan nan nan nan nan nan nan nan nan nan nan nan nan nan nan nan nan nan nan nan nan nan nan nan nan nan nan nan nan nan nan nan nan nan nan nan nan nan 1 1 8 16 22 22 31 48 48 62 68 73 73 71 74 77 81 81 84 87 90 90 93 106 121 121 129 128 128 115 109 99 99 93 93
nan nan nan nan nan nan nan nan nan nan nan nan nan nan nan nan nan nan nan nan nan nan nan nan nan nan nan nan nan nan nan nan nan nan nan nan nan nan nan nan nan nan nan nan nan nan nan nan nan nan nan nan nan nan nan nan nan nan nan nan nan nan nan nan nan nan nan nan nan nan 1 7 14 14 23 37 37 54 63 72 72 78 77 76 76 76 79 82 87 87 94 105 118 118 140 144 144 150 136 127 127 124 121
nan nan nan nan nan nan nan nan nan nan nan nan nan nan nan nan nan nan nan nan nan nan nan nan nan nan nan nan nan nan nan nan nan nan nan nan nan nan nan nan nan nan nan nan nan nan nan nan nan nan nan nan nan nan nan nan nan nan nan nan nan nan nan nan nan nan nan nan nan nan nan 0 7 7 17 29 29 42 56 67 67 78 80 78 79 79 80 84 89 89 95 102 108 108 118 129 129 134 146 151 151 143 143
nan nan nan nan nan nan nan nan nan nan nan nan nan nan nan nan nan nan nan nan nan nan nan nan nan nan nan nan nan nan nan nan nan nan nan nan nan nan nan nan nan nan nan nan nan nan nan nan nan nan nan nan nan nan nan nan nan nan nan nan nan nan nan nan nan nan nan nan nan nan nan nan 1 1 9 18 18 29 40 54 54 66 77 80 88 88 90 92 98 98 99 98 104 104 110 112 112 120 123 133 133 135 136
nan nan nan nan nan nan nan nan nan nan nan nan nan nan nan nan nan nan nan nan nan nan nan nan nan nan nan nan nan nan nan nan nan nan nan nan nan nan nan nan nan nan nan nan nan nan nan nan nan nan nan nan nan nan nan nan nan nan nan nan nan nan nan nan nan nan nan nan nan nan nan nan nan nan 3 11 11 18 24 37 37 47 57 71 91 91 93 100 117 117 112 105 105 105 110 110 110 112 113 115 115 122 125
nan nan nan nan nan nan nan nan nan nan nan nan nan nan nan nan nan nan nan nan nan nan nan nan nan nan nan nan nan nan nan nan nan nan nan nan nan nan nan nan nan nan nan nan nan nan nan nan nan nan nan nan nan nan nan nan nan nan nan nan nan nan nan nan nan nan nan nan nan nan nan nan nan nan nan 4 4 9 14 22 22 25 33 48 61 61 76 100 111 111 118 118 126 126 123 113 113 109 106 111 111 125 122
nan nan nan nan nan nan nan nan nan nan nan nan nan nan nan nan nan nan nan nan nan nan nan nan nan nan nan nan nan nan nan nan nan nan nan nan nan nan nan nan nan nan nan nan nan nan nan nan nan nan nan nan nan nan nan nan nan nan nan nan nan nan nan nan nan nan nan nan nan nan nan nan nan nan nan nan nan 3 5 9 9 12 18 29 39 39 53 69 82 82 98 116 126 126 133 123 123 116 105 111 111 114 122
nan nan nan nan nan nan nan nan nan nan nan nan nan nan nan nan nan nan nan nan nan nan nan nan nan nan nan nan nan nan nan nan nan nan nan nan nan nan nan nan nan nan nan nan nan nan nan nan nan nan nan nan nan nan nan nan nan nan nan nan nan nan nan nan nan nan nan nan nan nan nan nan nan nan nan nan nan nan nan nan nan nan nan 3 9 9 17 32 51 51 69 100 130 130 142 143 143 126 111 112 112 110 113
nan nan nan nan nan nan nan nan nan nan nan nan nan nan nan nan nan nan nan nan nan nan nan nan nan nan nan nan nan nan nan nan nan nan nan nan nan nan nan nan nan nan nan nan nan nan nan nan nan nan nan nan nan nan nan nan nan nan nan nan nan nan nan nan nan nan nan nan nan nan nan nan nan nan nan nan nan nan nan nan nan nan nan nan nan nan 5 10 24 24 47 74 108 108 129 142 142 126 120 120 120 112 113
nan nan nan nan nan nan nan nan nan nan nan nan nan nan nan nan nan nan nan nan nan nan nan nan nan nan nan nan nan nan nan nan nan nan nan nan nan nan nan nan nan nan nan nan nan nan nan nan nan nan nan nan nan nan nan nan nan nan nan nan nan nan nan nan nan nan nan nan nan nan nan nan nan nan nan nan nan nan nan nan nan nan nan nan nan nan nan 0 6 6 27 52 76 76 110 132 132 134 127 121 121 121 117
nan nan nan nan nan nan nan nan nan nan nan nan nan nan nan nan nan nan nan nan nan nan nan nan nan nan nan nan nan nan nan nan nan nan nan nan nan nan nan nan nan nan nan nan nan nan nan nan nan nan nan nan nan nan nan nan nan nan nan nan nan nan nan nan nan nan nan nan nan nan nan nan nan nan nan nan nan nan nan nan nan nan nan nan nan nan nan nan 0 0 11 35 57 57 94 113 113 124 134 127 127 127 118
nan nan nan nan nan nan nan nan nan nan nan nan nan nan nan nan nan nan nan nan nan nan nan nan nan nan nan nan nan nan nan nan nan nan nan nan nan nan nan nan nan nan nan nan nan nan nan nan nan nan nan nan nan nan nan nan nan nan nan nan nan nan nan nan nan nan nan nan nan nan nan nan nan nan nan nan nan nan nan nan nan nan nan nan nan nan nan nan nan nan 0 18 44 44 62 103 103 121 123 135 135 129 125
nan nan nan nan nan nan nan nan nan nan nan nan nan nan nan nan nan nan nan nan nan nan nan nan nan nan nan nan nan nan nan nan nan nan nan nan nan nan nan nan nan nan nan nan nan nan nan nan nan nan nan nan nan nan nan nan nan nan nan nan nan nan nan nan nan nan nan nan nan nan nan nan nan nan nan nan nan nan nan nan nan nan nan nan nan nan nan nan nan nan nan nan 16 16 40 68 68 92 123 140 140 135 143
nan nan nan nan nan nan nan nan nan nan nan nan nan nan nan nan nan nan nan nan nan nan nan nan nan nan nan nan nan nan nan nan nan nan nan nan nan nan nan nan nan nan nan nan nan nan nan nan nan nan nan nan nan nan nan nan nan nan nan nan nan nan nan nan nan nan nan nan nan nan nan nan nan nan nan nan nan nan nan nan nan nan nan nan nan nan nan nan nan nan nan nan 0 0 19 45 45 71 100 129 129 152 161
nan nan nan nan nan nan nan nan nan nan nan nan nan nan nan nan nan nan nan nan nan nan nan nan nan nan nan nan nan nan nan nan nan nan nan nan nan nan nan nan nan nan nan nan nan nan nan nan nan nan nan nan nan nan nan nan nan nan nan nan nan nan nan nan nan nan nan nan nan nan nan nan nan nan nan nan nan nan nan nan nan nan nan nan nan nan nan nan nan nan nan nan nan nan 2 22 22 49 75 104 104 131 151
nan nan nan nan nan nan nan nan nan nan nan nan nan nan nan nan nan nan nan nan nan nan nan nan nan nan nan nan nan nan nan nan nan nan nan nan nan nan nan nan nan nan nan nan nan nan nan nan nan nan nan nan nan nan nan nan nan nan nan nan nan nan nan nan nan nan nan nan nan nan nan nan nan nan nan nan nan nan nan nan nan nan nan nan nan nan nan nan nan nan nan nan nan nan nan 3 3 26 51 84 84 115 142
nan nan nan nan nan nan nan nan nan nan nan nan nan nan nan nan nan nan nan nan nan nan nan nan nan nan nan nan nan nan nan nan nan nan nan nan nan nan nan nan nan nan nan nan nan nan nan nan nan nan nan nan nan nan nan nan nan nan nan nan nan nan nan nan nan nan nan nan nan nan nan nan nan nan nan nan nan nan nan nan nan nan nan nan nan nan nan nan nan nan nan nan nan nan nan nan nan 9 34 64 64 101 133
nan nan nan nan nan nan nan nan nan nan nan nan nan nan nan nan nan nan nan nan nan nan nan nan nan nan nan nan nan nan nan nan nan nan nan nan nan nan nan nan nan nan nan nan nan nan nan nan nan nan nan nan nan nan nan nan nan nan nan nan nan nan nan nan nan nan nan nan nan nan nan nan nan nan nan nan nan nan nan nan nan nan nan nan nan nan nan nan nan nan nan nan nan nan nan nan nan 1 17 42 42 71 109
nan nan nan nan nan nan nan nan nan nan nan nan nan nan nan nan nan nan nan nan nan nan nan nan nan nan nan nan nan nan nan nan nan nan nan nan nan nan nan nan nan nan nan nan nan nan nan nan nan nan nan nan nan nan nan nan nan nan nan nan nan nan nan nan nan nan nan nan nan nan nan nan nan nan nan nan nan nan nan nan nan nan nan nan nan nan nan nan nan nan nan nan nan nan nan nan nan nan 5 24 24 51 83
nan nan nan nan nan nan nan nan nan nan nan nan nan nan nan nan nan nan nan nan nan nan nan nan nan nan nan nan nan nan nan nan nan nan nan nan nan nan nan nan nan nan nan nan nan nan nan nan nan nan nan nan nan nan nan nan nan nan nan nan nan nan nan nan nan nan nan nan nan nan nan nan nan nan nan nan nan nan nan nan nan nan nan nan nan nan nan nan nan nan nan nan nan nan nan nan nan nan nan 11 11 32 59
nan nan nan nan nan nan nan nan nan nan nan nan nan nan nan nan nan nan nan nan nan nan nan nan nan nan nan nan nan nan nan nan nan nan nan nan nan nan nan nan nan nan nan nan nan nan nan nan nan nan nan nan nan nan nan nan nan nan nan nan nan nan nan nan nan nan nan nan nan nan nan nan nan nan nan nan nan nan nan nan nan nan nan nan nan nan nan nan nan nan nan nan nan nan nan nan nan nan nan 3 3 23 43
nan nan nan nan nan nan nan nan nan nan nan nan nan nan nan nan nan nan nan nan nan nan nan nan nan nan nan nan nan nan nan nan nan nan nan nan nan nan nan nan nan nan nan nan nan nan nan nan nan nan nan nan nan nan nan nan nan nan nan nan nan nan nan nan nan nan nan nan nan nan nan nan nan nan nan nan nan nan nan nan nan nan nan nan nan nan nan nan nan nan nan nan nan nan nan nan nan nan nan nan nan 11 33
nan nan nan nan nan nan nan nan nan nan nan nan nan nan nan nan nan nan nan nan nan nan nan nan nan nan nan nan nan nan nan nan nan nan nan nan nan nan nan nan nan nan nan nan nan nan nan nan nan nan nan nan nan nan nan nan nan nan nan nan nan nan nan nan nan nan nan nan nan nan nan nan nan nan nan nan nan nan nan nan nan nan nan nan nan nan nan nan nan nan nan nan nan nan nan nan nan nan nan nan nan 3 22
nan nan nan nan nan nan nan nan nan nan nan nan nan nan nan nan nan nan nan nan nan nan nan nan nan nan nan nan nan nan nan nan nan nan nan nan nan nan nan nan nan nan nan nan nan nan nan nan nan nan nan nan nan nan nan nan nan nan nan nan nan nan nan nan nan nan nan nan nan nan nan nan nan nan nan nan nan nan nan nan nan nan nan nan nan nan nan nan nan nan nan nan nan nan nan nan nan nan nan nan nan 1 11
nan nan nan nan nan nan nan nan nan nan nan nan nan nan nan nan nan nan nan nan nan nan nan nan nan nan nan nan nan nan nan nan nan nan nan nan nan nan nan nan nan nan nan nan nan nan nan nan nan nan nan nan nan nan nan nan nan nan nan nan nan nan nan nan nan nan nan nan nan nan nan nan nan nan nan nan nan nan nan nan nan nan nan nan nan nan nan nan nan nan nan nan nan nan nan nan nan nan nan 1 1 4 10
nan nan nan nan nan nan nan nan nan nan nan nan nan nan nan nan nan nan nan nan nan nan nan nan nan nan nan nan nan nan nan nan nan nan nan nan nan nan nan nan nan nan nan 0 nan nan nan nan nan nan nan nan nan nan nan nan nan nan nan nan nan nan nan nan nan nan nan nan nan nan nan nan nan nan nan nan nan nan nan nan nan nan nan nan nan nan nan nan nan nan nan nan nan nan nan nan nan nan nan 2 2 7 14